Presure
217 218 227 231 220 221 226 233 233 240 246 202 216 224 256 251 240 260 288 319 323 305 295 284 288 283 266 258 250 253 279 239 303 334 419 407 433 310 259 262 170 173 180
241 238 240 251 201 204 235 240 243 243 240 256 249 244 251 361 351 339 309 293 275 269 263 252 251 263 261 147 277 244 280 262 321 354 476 569 475 419 318 274 254 244 123
222 207 203 311 302 295 289 275 258 245 238 257 340 345 300 277 267 269 268 253 277 275 303 299 297 307 326 314 298 273 288 314 310 355 451 499 194 291 392 313 281 203 203
199 228 206 215 231 233 231 230 258 363 362 305 277 282 286 281 282 286 274 278 284 288 291 292 295 292 265 307 318 301 297 309 315 356 443 420 389 394 380 354 300 286 268
201 247 236 237 259 286 424 387 303 275 244 284 264 264 263 264 265 264 263 263 264 265 267 268 272 279 286 284 279 279 304 285 309 347 438 409 371 358 353 376 350 295 279
271 287 432 440 390 282 282 295 269 260 255 254 255 254 254 255 255 253 252 250 249 255 275 288 318 266 267 264 306 292 289 293 318 318 431 404 370 339 335 344 351 311 176
351 272 277 276 263 252 249 243 241 240 237 238 238 224 239 243 244 241 243 249 255 263 264 261 265 278 294 299 305 305 309 285 292 311 351 420 374 345 355 340 324 333 334
255 245 241 235 235 235 221 212 220 225 227 226 223 223 224 223 224 220 215 260 259 218 251 256 271 264 269 273 288 290 308 275 276 291 311 376 410 390 344 332 310 290 311
216 225 217 212 211 221 223 215 214 216 224 226 225 225 216 147 226 223 226 228 240 252 261 253 242 253 263 270 270 281 287 278 271 295 286 298 295 383 364 351 322 326 321
197 198 201 213 219 208 199 200 206 209 217 218 161 223 224 223 194 254 233 230 198 236 238 182 183 253 176 237 212 256 226 309 281 275 266 281 286 308 330 353 347 356 346
215 202 199 203 208 218 214 199 192 197 198 210 134 183 169 136 207 226 225 249 252 226 245 264 257 136 135 132 129 179 256 130 134 140 131 131 166 282 197 283 327 327 311
189 218 191 220 194 194 195 199 218 197 212 219 194 210 217 218 217 213 238 242 240 249 206 214 253 265 255 254 239 235 256 278 257 270 285 271 261 125 124 126 124 126 318
189 188 200 197 198 189 215 191 199 193 197 215 214 221 220 198 235 233 230 240 246 240 229 241 244 259 264 265 256 243 242 268 294 167 284 275 271 276 265 280 278 272 273
176 182 194 212 190 192 186 202 210 221 234 204 260 254 233 208 228 230 236 244 225 239 245 241 239 241 259 263 266 254 259 263 273 298 257 287 209 320 297 260 298 284 275
190 183 185 211 181 176 191 189 219 202 202 231 184 210 227 247 213 235 247 226 229 240 239 240 235 240 246 258 262 267 262 252 268 283 160 261 293 282 304 266 317 341 286
200 170 182 182 219 181 209 217 213 212 216 227 223 225 216 235 244 236 238 238 228 227 232 243 254 242 238 237 261 261 267 261 251 266 277 274 291 285 295 253 350 296 358
198 199 209 211 213 220 192 206 212 212 228 229 201 214 221 223 202 212 218 244 214 233 249 232 237 243 251 230 239 257 256 265 255 252 264 282 296 307 280 315 313 332 294
203 203 212 191 222 203 211 209 221 219 213 228 225 224 218 211 204 235 234 229 217 240 233 257 231 237 213 246 231 262 258 254 263 252 268 268 287 305 290 315 277 337 286
184 199 199 201 224 226 209 231 185 216 214 219 227 225 215 211 222 226 235 223 247 252 244 258 253 246 240 278 226 257 258 255 263 265 254 271 278 289 298 287 301 293 318
203 197 194 224 220 225 229 220 223 219 214 217 227 230 225 212 217 236 244 236 249 251 253 259 276 280 242 251 254 240 273 253 260 272 268 264 280 288 292 298 269 286 310
193 207 206 193 220 222 224 220 224 215 207 209 225 226 233 233 230 234 236 247 249 242 247 267 277 268 243 241 246 265 264 255 257 268 261 252 280 284 295 288 275 278 296
209 200 216 219 210 212 200 209 205 235 225 224 226 222 229 231 231 231 236 250 255 255 311 303 286 280 260 260 249 268 266 253 258 255 281 264 284 283 300 281 278 313 320
209 205 208 225 213 209 211 212 222 228 229 221 219 226 226 235 233 239 247 259 269 311 324 319 285 275 263 255 279 266 265 255 264 253 277 285 278 281 296 276 271 288 376
202 209 206 205 209 218 214 210 231 218 211 217 224 233 233 239 239 244 258 270 284 340 161 299 285 277 260 274 277 273 265 257 269 262 243 286 275 280 287 268 311 377 328
208 208 221 240 216 224 225 225 224 222 222 224 234 232 236 247 256 283 285 280 290 327 299 294 287 286 220 272 292 278 267 255 253 266 253 280 278 298 295 274 283 347 304
212 219 227 163 234 220 216 222 219 229 222 233 134 225 218 289 286 260 199 365 367 177 295 281 287 276 181 270 282 276 267 262 276 276 265 276 277 290 272 283 358 307 309
Wind_Speed
85 85 87 88 87 88 90 92 91 90 88 84 87 87 77 78 83 77 73 67 55 58 59 63 67 70 69 69 65 61 77 70 78 78 75 75 80 115 103 101 74 77 81
85 84 84 80 79 82 82 82 82 79 80 69 75 79 79 40 44 42 45 47 53 57 59 59 61 64 64 43 78 56 77 68 64 74 65 56 72 86 112 110 100 92 54
74 74 75 63 63 63 61 58 57 61 68 69 43 35 37 42 47 49 51 52 57 58 60 59 60 61 63 60 61 67 63 59 60 77 54 45 65 69 90 112 111 84 80
67 68 68 73 60 59 59 60 57 36 29 30 36 38 39 42 44 45 45 48 50 52 53 53 53 52 55 53 55 55 56 58 56 71 46 30 36 58 67 90 110 110 110
63 54 55 57 53 50 27 20 20 28 37 28 30 32 33 35 36 38 40 43 45 48 50 50 50 50 48 48 49 47 52 56 54 60 34 24 31 37 50 67 91 110 110
47 46 34 24 15 17 17 15 16 19 20 22 24 26 28 30 33 35 37 40 42 42 40 40 40 47 48 50 46 46 44 46 54 52 31 22 34 46 51 57 62 93 72
9 9 5 6 9 10 11 11 12 14 17 21 23 30 27 30 31 32 32 33 35 37 38 38 39 40 43 44 44 44 47 43 45 47 48 24 33 46 46 54 63 64 79
16 12 11 6 5 7 16 25 22 21 23 26 30 32 35 37 38 42 47 39 39 47 38 40 45 43 43 42 46 46 47 41 40 40 41 31 24 38 45 53 62 63 74
11 1 13 19 22 18 17 23 25 26 24 26 31 34 36 42 38 41 41 42 41 42 45 42 40 43 46 47 45 47 47 43 38 42 37 31 26 17 33 43 48 60 69
23 23 24 18 14 21 30 33 32 32 30 33 41 34 39 38 40 46 46 44 47 45 45 49 49 46 49 44 47 41 46 47 46 41 35 37 31 26 25 24 31 42 56
10 20 25 27 26 23 28 35 40 39 41 41 47 43 46 52 46 48 45 52 50 48 47 51 50 60 60 59 57 53 42 58 60 56 56 54 49 37 51 31 29 32 52
27 23 31 25 34 37 39 39 38 43 41 42 49 47 48 50 49 49 56 56 54 54 49 51 52 53 50 49 45 44 49 51 44 43 42 43 42 57 56 56 56 58 39
29 34 33 36 37 40 38 46 47 48 50 47 48 50 50 54 54 54 56 57 57 57 52 55 55 57 55 54 50 47 46 53 50 58 44 42 46 43 42 45 47 45 45
39 39 38 37 44 47 47 49 48 48 51 52 48 48 51 55 54 56 58 58 56 60 60 60 57 57 59 56 55 51 53 52 53 50 44 47 52 42 43 46 52 55 56
44 43 46 44 47 49 52 56 52 54 55 56 56 57 55 56 60 58 56 61 61 61 62 61 61 60 60 60 58 56 54 51 54 53 61 47 49 45 45 50 49 50 62
46 46 49 53 49 55 50 50 50 52 55 59 55 57 57 63 59 61 63 62 64 65 65 64 64 63 61 57 59 56 56 54 52 54 54 52 54 50 50 54 50 56 49
48 50 50 49 52 54 58 53 57 57 64 65 63 60 61 63 63 64 65 69 65 66 72 69 68 67 64 61 61 61 59 57 54 54 56 57 57 56 50 57 54 52 57
47 48 55 57 58 56 58 57 61 64 62 67 68 68 67 65 63 74 74 74 68 73 70 73 73 70 61 64 61 63 61 59 60 55 60 58 60 60 56 63 55 61 57
60 54 56 60 66 66 64 67 63 67 67 70 71 72 71 70 76 76 78 74 83 80 78 75 70 72 70 63 61 64 63 61 62 62 59 64 64 63 63 58 63 59 62
53 55 58 68 67 68 68 69 70 72 72 75 74 73 75 74 78 79 80 81 88 84 80 79 73 70 71 68 66 65 68 63 64 66 64 63 68 68 68 69 58 62 66
58 65 65 64 72 69 68 69 73 73 75 76 78 78 79 81 79 81 86 92 91 88 86 82 71 68 72 68 68 68 67 64 64 68 64 62 70 70 72 67 62 65 69
69 62 74 74 69 69 66 71 71 86 82 83 83 79 81 82 82 84 91 98 98 93 79 71 68 66 66 67 69 68 69 63 66 64 71 67 72 71 75 66 65 72 66
77 70 71 86 74 70 70 73 85 89 89 82 78 82 82 91 90 96 100 104 98 82 69 60 62 65 67 68 67 68 67 64 68 64 72 73 72 72 75 67 67 72 55
72 77 72 68 76 84 77 75 91 83 77 81 89 93 95 100 98 102 109 102 91 61 40 55 60 66 69 66 67 69 67 62 67 67 61 72 72 74 74 67 76 64 55
78 77 91 95 81 90 94 88 87 87 90 93 99 97 101 108 111 107 96 92 81 55 55 54 60 62 53 64 64 67 65 61 63 67 64 71 72 79 77 71 75 63 62
92 91 97 62 102 85 80 87 81 99 91 100 38 94 90 109 101 94 57 59 49 37 49 58 57 59 44 60 60 60 61 62 67 68 68 72 73 77 70 74 70 65 69
Wind_Direction
279 284 285 285 287 288 289 289 289 289 289 284 287 288 291 289 289 290 290 291 290 291 287 290 289 289 290 288 286 282 292 265 280 272 277 265 251 245 251 250 260 262 262
281 283 285 283 285 285 286 285 285 286 287 290 289 289 290 298 294 296 297 297 293 293 292 291 290 289 287 286 288 284 291 289 295 306 288 273 246 240 241 244 246 245 260
285 287 288 283 286 287 289 291 290 288 287 290 297 303 300 292 294 301 302 298 298 295 294 293 293 294 293 294 288 291 292 307 303 317 297 275 261 246 234 236 240 249 246
284 283 287 286 286 287 286 286 290 296 303 296 293 306 308 308 306 304 303 302 300 300 300 300 299 299 297 299 299 302 301 307 318 322 300 259 235 232 233 232 234 236 238
283 284 282 282 288 290 292 293 296 293 293 317 314 315 315 314 313 312 311 310 309 308 307 306 306 306 306 303 302 305 314 306 326 329 302 254 224 230 229 231 231 233 236
285 287 291 289 291 298 309 326 331 330 328 328 330 329 325 323 319 316 315 312 309 308 313 317 322 309 309 307 313 313 319 325 331 336 317 247 204 222 225 227 231 233 247
287 297 337 36 35 25 21 350 347 347 336 343 343 319 340 340 330 322 317 314 314 317 316 314 315 322 326 324 323 323 322 322 334 339 343 273 226 226 224 225 231 231 232
82 72 65 35 9 4 306 298 304 315 320 318 312 310 309 307 304 300 300 331 327 307 318 321 328 323 325 326 327 326 326 322 320 335 344 346 268 241 241 237 238 241 230
299 318 299 296 298 303 316 310 311 314 323 324 316 314 307 284 312 311 312 312 321 324 327 322 315 323 327 328 328 330 328 324 321 326 330 340 305 292 258 250 243 235 231
308 305 306 311 325 310 302 304 307 308 310 308 290 315 318 310 304 330 320 315 303 318 317 295 295 322 291 315 307 322 310 330 325 322 318 318 320 306 289 266 255 248 239
325 305 305 310 311 315 317 306 305 305 304 307 279 298 291 280 312 320 317 332 327 315 321 329 324 280 280 280 280 292 322 284 281 281 279 277 281 310 275 290 253 256 245
305 322 307 335 311 310 310 306 320 302 309 321 302 313 317 317 314 311 328 327 325 325 308 313 324 325 320 321 311 313 320 321 317 314 315 309 304 272 269 271 270 271 249
306 308 303 306 308 304 319 304 303 302 306 315 314 317 320 309 325 325 323 324 323 323 318 322 322 323 323 322 319 311 312 321 319 285 312 306 296 297 293 283 283 281 276
302 304 306 314 303 301 307 308 313 323 331 312 334 329 321 311 319 320 321 322 319 323 320 320 319 320 321 321 321 318 318 319 318 316 307 308 289 310 295 286 270 269 271
297 300 302 313 304 304 307 304 320 307 307 328 307 315 325 328 314 321 325 317 318 320 318 318 317 317 319 318 319 321 318 314 319 317 283 305 306 300 298 286 274 273 265
299 298 301 300 323 302 310 318 313 314 320 324 321 323 315 324 326 322 321 317 315 315 317 314 315 312 314 314 315 316 318 316 311 315 314 308 309 301 301 282 305 272 286
303 304 320 317 318 320 307 307 313 312 323 324 308 311 317 318 308 311 313 321 312 311 314 312 312 311 310 310 312 313 313 315 311 311 311 313 312 309 297 307 299 297 274
308 308 321 311 319 311 314 312 315 316 313 321 319 317 314 308 311 320 317 313 311 312 311 309 308 308 305 308 308 310 310 311 312 309 311 310 312 314 303 311 289 306 283
301 310 311 312 322 320 313 320 303 312 314 317 317 315 311 309 315 315 316 311 317 313 308 310 303 303 305 303 307 307 307 308 310 311 309 310 311 311 309 303 307 297 302
307 303 304 322 321 320 318 314 314 314 316 317 316 314 311 309 311 316 317 313 315 311 309 307 305 305 301 304 304 305 307 306 307 310 310 308 310 312 312 312 297 302 305
302 314 312 306 319 318 318 318 317 313 312 313 315 313 313 313 309 312 315 315 314 307 306 307 301 299 300 303 303 303 302 304 306 309 309 307 310 312 314 310 305 306 308
309 305 312 313 311 312 307 313 308 319 316 314 312 311 313 311 310 311 313 312 311 308 303 300 295 296 294 297 300 298 299 303 305 308 309 309 310 312 314 311 310 314 309
307 306 311 314 312 308 311 313 317 317 316 313 310 313 312 315 313 313 313 312 309 304 298 296 294 295 293 296 298 296 298 301 306 307 309 311 310 312 314 312 312 312 305
308 309 307 309 311 313 311 309 314 314 308 311 312 314 314 313 311 311 310 307 305 294 313 292 287 289 293 292 293 291 296 301 305 306 306 310 310 314 314 313 316 316 308
309 308 308 302 311 312 312 311 313 312 312 312 314 313 312 311 309 306 305 305 303 293 294 287 285 287 300 292 291 289 295 302 303 306 307 310 312 316 316 316 316 316 310
306 309 304 300 304 310 310 312 311 311 310 310 303 309 310 305 305 305 301 301 292 306 287 288 289 289 308 291 290 290 296 301 304 305 310 312 314 316 317 318 321 317 316